Year,Month,Day,Hour,Minute,Value (Times are PST for temperature in C)
2016,05,02,00,00,12.80
2016,05,02,00,01,12.80
2016,05,02,00,02,12.80
2016,05,02,00,03,12.80
2016,05,02,00,04,12.70
2016,05,02,00,05,12.70
2016,05,02,00,06,12.60
2016,05,02,00,07,12.50
2016,05,02,00,08,12.50
2016,05,02,00,09,12.40
2016,05,02,00,10,12.40
2016,05,02,00,11,12.30
2016,05,02,00,12,12.30
2016,05,02,00,13,12.30
2016,05,02,00,14,12.30
2016,05,02,00,15,12.20
2016,05,02,00,16,12.20
2016,05,02,00,17,12.20
2016,05,02,00,18,12.20
2016,05,02,00,19,12.20
2016,05,02,00,20,12.20
2016,05,02,00,21,12.10
2016,05,02,00,22,12.10
2016,05,02,00,23,12.10
2016,05,02,00,24,12.10
2016,05,02,00,25,12.00
2016,05,02,00,26,12.00
2016,05,02,00,27,12.00
2016,05,02,00,28,11.90
2016,05,02,00,29,11.90
2016,05,02,00,30,11.90
2016,05,02,00,31,11.90
2016,05,02,00,32,11.90
2016,05,02,00,33,11.80
2016,05,02,00,34,11.80
2016,05,02,00,35,11.80
2016,05,02,00,36,11.80
2016,05,02,00,37,11.80
2016,05,02,00,38,11.80
2016,05,02,00,39,11.80
2016,05,02,00,40,11.80
2016,05,02,00,41,11.80
2016,05,02,00,42,11.70
2016,05,02,00,43,11.70
2016,05,02,00,44,11.70
2016,05,02,00,45,11.70
2016,05,02,00,46,11.70
2016,05,02,00,47,11.70
2016,05,02,00,48,11.60
2016,05,02,00,49,11.60
2016,05,02,00,50,11.60
2016,05,02,00,51,11.60
2016,05,02,00,52,11.60
2016,05,02,00,53,11.60
2016,05,02,00,54,11.70
2016,05,02,00,55,11.70
2016,05,02,00,56,11.70
2016,05,02,00,57,11.70
2016,05,02,00,58,11.70
2016,05,02,00,59,11.70
2016,05,02,01,00,11.70
2016,05,02,01,01,11.70
2016,05,02,01,02,11.80
2016,05,02,01,03,11.90
2016,05,02,01,04,11.90
2016,05,02,01,05,11.90
2016,05,02,01,06,11.90
2016,05,02,01,07,12.00
2016,05,02,01,08,12.00
2016,05,02,01,09,12.00
2016,05,02,01,10,12.00
2016,05,02,01,11,12.00
2016,05,02,01,12,12.00
2016,05,02,01,13,12.00
2016,05,02,01,14,12.00
2016,05,02,01,15,12.00
2016,05,02,01,16,11.90
2016,05,02,01,17,11.90
2016,05,02,01,18,11.90
2016,05,02,01,19,11.90
2016,05,02,01,20,11.80
2016,05,02,01,21,11.80
2016,05,02,01,22,11.80
2016,05,02,01,23,11.80
2016,05,02,01,24,11.70
2016,05,02,01,25,11.70
2016,05,02,01,26,11.70
2016,05,02,01,27,11.70
2016,05,02,01,28,11.70
2016,05,02,01,29,11.70
2016,05,02,01,30,11.60
2016,05,02,01,31,11.60
2016,05,02,01,32,11.60
2016,05,02,01,33,11.60
2016,05,02,01,34,11.60
2016,05,02,01,35,11.60
2016,05,02,01,36,11.50
2016,05,02,01,37,11.50
2016,05,02,01,38,11.50
2016,05,02,01,39,11.50
2016,05,02,01,40,11.50
2016,05,02,01,41,11.50
2016,05,02,01,42,11.50
2016,05,02,01,43,11.50
2016,05,02,01,44,11.60
2016,05,02,01,45,11.60
2016,05,02,01,46,11.60
2016,05,02,01,47,11.70
2016,05,02,01,48,11.70
2016,05,02,01,49,11.80
2016,05,02,01,50,11.80
2016,05,02,01,51,11.80
2016,05,02,01,52,11.80
2016,05,02,01,53,11.80
2016,05,02,01,54,11.80
2016,05,02,01,55,11.80
2016,05,02,01,56,11.80
2016,05,02,01,57,11.80
2016,05,02,01,58,11.80
2016,05,02,01,59,11.80
2016,05,02,02,00,11.80
2016,05,02,02,01,11.80
2016,05,02,02,02,11.80
2016,05,02,02,03,11.80
2016,05,02,02,04,11.80
2016,05,02,02,05,11.80
2016,05,02,02,06,11.90
2016,05,02,02,07,11.90
2016,05,02,02,08,11.90
2016,05,02,02,09,11.90
2016,05,02,02,10,11.90
2016,05,02,02,11,11.90
2016,05,02,02,12,12.00
2016,05,02,02,13,12.00
2016,05,02,02,14,12.00
2016,05,02,02,15,12.10
2016,05,02,02,16,12.10
2016,05,02,02,17,12.10
2016,05,02,02,18,12.10
2016,05,02,02,19,12.20
2016,05,02,02,20,12.20
2016,05,02,02,21,12.20
2016,05,02,02,22,12.20
2016,05,02,02,23,12.20
2016,05,02,02,24,12.20
2016,05,02,02,25,12.20
2016,05,02,02,26,12.20
2016,05,02,02,27,12.20
2016,05,02,02,28,12.20
2016,05,02,02,29,12.20
2016,05,02,02,30,12.20
2016,05,02,02,31,12.20
2016,05,02,02,32,12.10
2016,05,02,02,33,12.10
2016,05,02,02,34,12.10
2016,05,02,02,35,12.10
2016,05,02,02,36,12.10
2016,05,02,02,37,12.10
2016,05,02,02,38,12.10
2016,05,02,02,39,12.10
2016,05,02,02,40,12.10
2016,05,02,02,41,12.10
2016,05,02,02,42,12.10
2016,05,02,02,43,12.10
2016,05,02,02,44,12.10
2016,05,02,02,45,12.10
2016,05,02,02,46,12.10
2016,05,02,02,47,12.10
2016,05,02,02,48,12.10
2016,05,02,02,49,12.10
2016,05,02,02,50,12.10
2016,05,02,02,51,12.10
2016,05,02,02,52,12.10
2016,05,02,02,53,12.10
2016,05,02,02,54,12.10
2016,05,02,02,55,12.10
2016,05,02,02,56,12.10
2016,05,02,02,57,12.10
2016,05,02,02,58,12.10
2016,05,02,02,59,12.10
2016,05,02,03,00,12.10
2016,05,02,03,01,12.00
2016,05,02,03,02,12.00
2016,05,02,03,03,12.00
2016,05,02,03,04,12.10
2016,05,02,03,05,12.10
2016,05,02,03,06,12.10
2016,05,02,03,07,12.10
2016,05,02,03,08,12.10
2016,05,02,03,09,12.10
2016,05,02,03,10,12.10
2016,05,02,03,11,12.10
2016,05,02,03,12,12.10
2016,05,02,03,13,12.00
2016,05,02,03,14,12.00
2016,05,02,03,15,12.00
2016,05,02,03,16,12.00
2016,05,02,03,17,12.00
2016,05,02,03,18,12.00
2016,05,02,03,19,12.00
2016,05,02,03,20,12.00
2016,05,02,03,21,12.00
2016,05,02,03,22,12.10
2016,05,02,03,23,12.10
2016,05,02,03,24,12.10
2016,05,02,03,25,12.10
2016,05,02,03,26,12.10
2016,05,02,03,27,12.10
2016,05,02,03,28,12.10
2016,05,02,03,29,12.10
2016,05,02,03,30,12.10
2016,05,02,03,31,12.00
2016,05,02,03,32,12.00
2016,05,02,03,33,12.00
2016,05,02,03,34,12.00
2016,05,02,03,35,12.00
2016,05,02,03,36,12.00
2016,05,02,03,37,12.00
2016,05,02,03,38,12.00
2016,05,02,03,39,12.00
2016,05,02,03,40,12.00
2016,05,02,03,41,12.10
2016,05,02,03,42,12.10
2016,05,02,03,43,12.10
2016,05,02,03,44,12.10
2016,05,02,03,45,12.10
2016,05,02,03,46,12.10
2016,05,02,03,47,12.10
2016,05,02,03,48,12.10
2016,05,02,03,49,12.10
2016,05,02,03,50,12.00
2016,05,02,03,51,12.00
2016,05,02,03,52,11.90
2016,05,02,03,53,11.90
2016,05,02,03,54,11.90
2016,05,02,03,55,11.80
2016,05,02,03,56,11.80
2016,05,02,03,57,11.80
2016,05,02,03,58,11.80
2016,05,02,03,59,11.80
2016,05,02,04,00,11.80
2016,05,02,04,01,11.80
2016,05,02,04,02,11.80
2016,05,02,04,03,11.80
2016,05,02,04,04,11.80
2016,05,02,04,05,11.90
2016,05,02,04,06,11.90
2016,05,02,04,07,11.90
2016,05,02,04,08,11.90
2016,05,02,04,09,11.90
2016,05,02,04,10,12.00
2016,05,02,04,11,12.00
2016,05,02,04,12,12.00
2016,05,02,04,13,12.10
2016,05,02,04,14,12.10
2016,05,02,04,15,12.20
2016,05,02,04,16,12.20
2016,05,02,04,17,12.30
2016,05,02,04,18,12.30
2016,05,02,04,19,12.40
2016,05,02,04,20,12.40
2016,05,02,04,21,12.50
2016,05,02,04,22,12.60
2016,05,02,04,23,12.60
2016,05,02,04,24,12.70
2016,05,02,04,25,12.70
2016,05,02,04,26,12.80
2016,05,02,04,27,12.80
2016,05,02,04,28,12.80
2016,05,02,04,29,12.80
2016,05,02,04,30,12.90
2016,05,02,04,31,12.90
2016,05,02,04,32,12.90
2016,05,02,04,33,12.90
2016,05,02,04,34,12.90
2016,05,02,04,35,12.90
2016,05,02,04,36,13.00
2016,05,02,04,37,13.00
2016,05,02,04,38,13.00
2016,05,02,04,39,13.00
2016,05,02,04,40,13.00
2016,05,02,04,41,13.00
2016,05,02,04,42,13.00
2016,05,02,04,43,13.00
2016,05,02,04,44,13.00
2016,05,02,04,45,13.00
2016,05,02,04,46,13.00
2016,05,02,04,47,13.00
2016,05,02,04,48,13.00
2016,05,02,04,49,13.00
2016,05,02,04,50,13.00
2016,05,02,04,51,13.00
2016,05,02,04,52,13.10
2016,05,02,04,53,13.10
2016,05,02,04,54,13.00
2016,05,02,04,55,13.00
2016,05,02,04,56,13.00
2016,05,02,04,57,12.90
2016,05,02,04,58,12.90
2016,05,02,04,59,12.90
2016,05,02,05,00,12.80
2016,05,02,05,01,12.80
2016,05,02,05,02,12.80
2016,05,02,05,03,12.80
2016,05,02,05,04,12.80
2016,05,02,05,05,12.80
2016,05,02,05,06,12.80
2016,05,02,05,07,12.80
2016,05,02,05,08,12.80
2016,05,02,05,09,12.80
2016,05,02,05,10,12.80
2016,05,02,05,11,12.80
2016,05,02,05,12,12.90
2016,05,02,05,13,12.90
2016,05,02,05,14,12.90
2016,05,02,05,15,12.90
2016,05,02,05,16,12.90
2016,05,02,05,17,12.90
2016,05,02,05,18,12.90
2016,05,02,05,19,12.90
2016,05,02,05,20,12.90
2016,05,02,05,21,12.90
2016,05,02,05,22,12.90
2016,05,02,05,23,12.90
2016,05,02,05,24,12.90
2016,05,02,05,25,12.90
2016,05,02,05,26,12.80
2016,05,02,05,27,12.80
2016,05,02,05,28,12.80
2016,05,02,05,29,12.80
2016,05,02,05,30,12.80
2016,05,02,05,31,12.70
2016,05,02,05,32,12.70
2016,05,02,05,33,12.70
2016,05,02,05,34,12.70
2016,05,02,05,35,12.60
2016,05,02,05,36,12.60
2016,05,02,05,37,12.60
2016,05,02,05,38,12.60
2016,05,02,05,39,12.60
2016,05,02,05,40,12.60
2016,05,02,05,41,12.60
2016,05,02,05,42,12.50
2016,05,02,05,43,12.50
2016,05,02,05,44,12.40
2016,05,02,05,45,12.40
2016,05,02,05,46,12.40
2016,05,02,05,47,12.40
2016,05,02,05,48,12.40
2016,05,02,05,49,12.40
2016,05,02,05,50,12.30
2016,05,02,05,51,12.30
2016,05,02,05,52,12.30
2016,05,02,05,53,12.30
2016,05,02,05,54,12.30
2016,05,02,05,55,12.40
2016,05,02,05,56,12.40
2016,05,02,05,57,12.50
2016,05,02,05,58,12.60
2016,05,02,05,59,12.60
2016,05,02,06,00,12.70
2016,05,02,06,01,12.70
2016,05,02,06,02,12.80
2016,05,02,06,03,12.80
2016,05,02,06,04,12.80
2016,05,02,06,05,12.90
2016,05,02,06,06,12.90
2016,05,02,06,07,12.90
2016,05,02,06,08,12.90
2016,05,02,06,09,12.90
2016,05,02,06,10,13.00
2016,05,02,06,11,13.00
2016,05,02,06,12,13.10
2016,05,02,06,13,13.10
2016,05,02,06,14,13.10
2016,05,02,06,15,13.10
2016,05,02,06,16,13.20
2016,05,02,06,17,13.20
2016,05,02,06,18,13.20
2016,05,02,06,19,13.30
2016,05,02,06,20,13.30
2016,05,02,06,21,13.30
2016,05,02,06,22,13.30
2016,05,02,06,23,13.30
2016,05,02,06,24,13.30
2016,05,02,06,25,13.30
2016,05,02,06,26,13.30
2016,05,02,06,27,13.30
2016,05,02,06,28,13.40
2016,05,02,06,29,13.40
2016,05,02,06,30,13.40
2016,05,02,06,31,13.40
2016,05,02,06,32,13.50
2016,05,02,06,33,13.50
2016,05,02,06,34,13.50
2016,05,02,06,35,13.60
2016,05,02,06,36,13.60
2016,05,02,06,37,13.60
2016,05,02,06,38,13.60
2016,05,02,06,39,13.70
2016,05,02,06,40,13.70
2016,05,02,06,41,13.70
2016,05,02,06,42,13.70
2016,05,02,06,43,13.70
2016,05,02,06,44,13.70
2016,05,02,06,45,13.60
2016,05,02,06,46,13.60
2016,05,02,06,47,13.60
2016,05,02,06,48,13.60
2016,05,02,06,49,13.60
2016,05,02,06,50,13.50
2016,05,02,06,51,13.50
2016,05,02,06,52,13.50
2016,05,02,06,53,13.40
2016,05,02,06,54,13.30
2016,05,02,06,55,13.30
2016,05,02,06,56,13.30
2016,05,02,06,57,13.30
2016,05,02,06,58,13.30
2016,05,02,06,59,13.30
2016,05,02,07,00,13.30
2016,05,02,07,01,13.30
2016,05,02,07,02,13.30
2016,05,02,07,03,13.30
2016,05,02,07,04,13.20
2016,05,02,07,05,13.20
2016,05,02,07,06,13.20
2016,05,02,07,07,13.20
2016,05,02,07,08,13.30
2016,05,02,07,09,13.30
2016,05,02,07,10,13.30
2016,05,02,07,11,13.30
2016,05,02,07,12,13.40
2016,05,02,07,13,13.40
2016,05,02,07,14,13.40
2016,05,02,07,15,13.50
2016,05,02,07,16,13.50
2016,05,02,07,17,13.50
2016,05,02,07,18,13.60
2016,05,02,07,19,13.60
2016,05,02,07,20,13.70
2016,05,02,07,21,13.70
2016,05,02,07,22,13.70
2016,05,02,07,23,13.70
2016,05,02,07,24,13.80
2016,05,02,07,25,13.80
2016,05,02,07,26,13.90
2016,05,02,07,27,14.00
2016,05,02,07,28,14.00
2016,05,02,07,29,14.10
2016,05,02,07,30,14.20
2016,05,02,07,31,14.30
2016,05,02,07,32,14.40
2016,05,02,07,33,14.40
2016,05,02,07,34,14.50
2016,05,02,07,35,14.60
2016,05,02,07,36,14.70
2016,05,02,07,37,14.80
2016,05,02,07,38,14.80
2016,05,02,07,39,14.90
2016,05,02,07,40,15.00
2016,05,02,07,41,15.10
2016,05,02,07,42,15.20
2016,05,02,07,43,15.20
2016,05,02,07,44,15.30
2016,05,02,07,45,15.40
2016,05,02,07,46,15.40
2016,05,02,07,47,15.50
2016,05,02,07,48,15.50
2016,05,02,07,49,15.50
2016,05,02,07,50,15.50
2016,05,02,07,51,15.60
2016,05,02,07,52,15.60
2016,05,02,07,53,15.60
2016,05,02,07,54,15.60
2016,05,02,07,55,15.60
2016,05,02,07,56,15.60
2016,05,02,07,57,15.60
2016,05,02,07,58,15.60
2016,05,02,07,59,15.70
2016,05,02,08,00,15.70
2016,05,02,08,01,15.70
2016,05,02,08,02,15.80
2016,05,02,08,03,15.80
2016,05,02,08,04,15.90
2016,05,02,08,05,15.90
2016,05,02,08,06,15.90
2016,05,02,08,07,16.00
2016,05,02,08,08,15.90
2016,05,02,08,09,15.90
2016,05,02,08,10,15.80
2016,05,02,08,11,15.80
2016,05,02,08,12,15.80
2016,05,02,08,13,15.70
2016,05,02,08,14,15.70
2016,05,02,08,15,15.70
2016,05,02,08,16,15.70
2016,05,02,08,17,15.70
2016,05,02,08,18,15.70
2016,05,02,08,19,15.70
2016,05,02,08,20,15.70
2016,05,02,08,21,15.70
2016,05,02,08,22,15.70
2016,05,02,08,23,15.70
2016,05,02,08,24,15.70
2016,05,02,08,25,15.70
2016,05,02,08,26,15.70
2016,05,02,08,27,15.70
2016,05,02,08,28,15.80
2016,05,02,08,29,15.80
2016,05,02,08,30,15.90
2016,05,02,08,31,16.00
2016,05,02,08,32,16.00
2016,05,02,08,33,16.10
2016,05,02,08,34,16.20
2016,05,02,08,35,16.30
2016,05,02,08,36,16.30
2016,05,02,08,37,16.40
2016,05,02,08,38,16.40
2016,05,02,08,39,16.50
2016,05,02,08,40,16.50
2016,05,02,08,41,16.50
2016,05,02,08,42,16.50
2016,05,02,08,43,16.60
2016,05,02,08,44,16.60
2016,05,02,08,45,16.60
2016,05,02,08,46,16.60
2016,05,02,08,47,16.60
2016,05,02,08,48,16.60
2016,05,02,08,49,16.60
2016,05,02,08,50,16.60
2016,05,02,08,51,16.60
2016,05,02,08,52,16.60
2016,05,02,08,53,16.60
2016,05,02,08,54,16.60
2016,05,02,08,55,16.70
2016,05,02,08,56,16.70
2016,05,02,08,57,16.70
2016,05,02,08,58,16.70
2016,05,02,08,59,16.70
2016,05,02,09,00,16.70
2016,05,02,09,01,16.60
2016,05,02,09,02,16.60
2016,05,02,09,03,16.60
2016,05,02,09,04,16.60
2016,05,02,09,05,16.60
2016,05,02,09,06,16.60
2016,05,02,09,07,16.60
2016,05,02,09,08,16.60
2016,05,02,09,09,16.60
2016,05,02,09,10,16.60
2016,05,02,09,11,16.60
2016,05,02,09,12,16.60
2016,05,02,09,13,16.60
2016,05,02,09,14,16.60
2016,05,02,09,15,16.60
2016,05,02,09,16,16.60
2016,05,02,09,17,16.60
2016,05,02,09,18,16.70
2016,05,02,09,19,16.70
2016,05,02,09,20,16.70
2016,05,02,09,21,16.70
2016,05,02,09,22,16.80
2016,05,02,09,23,16.80
2016,05,02,09,24,16.80
2016,05,02,09,25,16.80
2016,05,02,09,26,16.80
2016,05,02,09,27,16.80
2016,05,02,09,28,16.80
2016,05,02,09,29,16.90
2016,05,02,09,30,16.90
2016,05,02,09,31,16.90
2016,05,02,09,32,16.80
2016,05,02,09,33,16.80
2016,05,02,09,34,16.80
2016,05,02,09,35,16.80
2016,05,02,09,36,16.80
2016,05,02,09,37,16.90
2016,05,02,09,38,16.90
2016,05,02,09,39,16.90
2016,05,02,09,40,17.00
2016,05,02,09,41,17.00
2016,05,02,09,42,17.10
2016,05,02,09,43,17.10
2016,05,02,09,44,17.20
2016,05,02,09,45,17.20
2016,05,02,09,46,17.30
2016,05,02,09,47,17.30
2016,05,02,09,48,17.40
2016,05,02,09,49,17.40
2016,05,02,09,50,17.40
2016,05,02,09,51,17.50
2016,05,02,09,52,17.50
2016,05,02,09,53,17.50
2016,05,02,09,54,17.60
2016,05,02,09,55,17.60
2016,05,02,09,56,17.60
2016,05,02,09,57,17.60
2016,05,02,09,58,17.60
2016,05,02,09,59,17.70
2016,05,02,10,00,17.70
2016,05,02,10,01,17.70
2016,05,02,10,02,17.80
2016,05,02,10,03,17.80
2016,05,02,10,04,17.80
2016,05,02,10,05,17.90
2016,05,02,10,06,17.90
2016,05,02,10,07,17.90
2016,05,02,10,08,18.00
2016,05,02,10,09,18.00
2016,05,02,10,10,18.00
2016,05,02,10,11,18.00
2016,05,02,10,12,18.10
2016,05,02,10,13,18.10
2016,05,02,10,14,18.10
2016,05,02,10,15,18.10
2016,05,02,10,16,18.10
2016,05,02,10,17,18.10
2016,05,02,10,18,18.20
2016,05,02,10,19,18.20
2016,05,02,10,20,18.20
2016,05,02,10,21,18.30
2016,05,02,10,22,18.30
2016,05,02,10,23,18.30
2016,05,02,10,24,18.30
2016,05,02,10,25,18.30
2016,05,02,10,26,18.30
2016,05,02,10,27,18.30
2016,05,02,10,28,18.30
2016,05,02,10,29,18.30
2016,05,02,10,30,18.30
2016,05,02,10,31,18.40
2016,05,02,10,32,18.40
2016,05,02,10,33,18.40
2016,05,02,10,34,18.40
2016,05,02,10,35,18.40
2016,05,02,10,36,18.40
2016,05,02,10,37,18.40
2016,05,02,10,38,18.40
2016,05,02,10,39,18.40
2016,05,02,10,40,18.40
2016,05,02,10,41,18.40
2016,05,02,10,42,18.30
2016,05,02,10,43,18.30
2016,05,02,10,44,18.30
2016,05,02,10,45,18.40
2016,05,02,10,46,18.40
2016,05,02,10,47,18.50
2016,05,02,10,48,18.50
2016,05,02,10,49,18.40
2016,05,02,10,50,18.40
2016,05,02,10,51,18.40
2016,05,02,10,52,18.40
2016,05,02,10,53,18.40
2016,05,02,10,54,18.40
2016,05,02,10,55,18.40
2016,05,02,10,56,18.40
2016,05,02,10,57,18.40
2016,05,02,10,58,18.40
2016,05,02,10,59,18.40
2016,05,02,11,00,18.30
2016,05,02,11,01,18.30
2016,05,02,11,02,18.20
2016,05,02,11,03,18.20
2016,05,02,11,04,18.20
2016,05,02,11,05,18.20
2016,05,02,11,06,18.20
2016,05,02,11,07,18.20
2016,05,02,11,08,18.20
2016,05,02,11,09,18.20
2016,05,02,11,10,18.30
2016,05,02,11,11,18.30
2016,05,02,11,12,18.40
2016,05,02,11,13,18.40
2016,05,02,11,14,18.40
2016,05,02,11,15,18.50
2016,05,02,11,16,18.50
2016,05,02,11,17,18.60
2016,05,02,11,18,18.60
2016,05,02,11,19,18.60
2016,05,02,11,20,18.60
2016,05,02,11,21,18.60
2016,05,02,11,22,18.60
2016,05,02,11,23,18.70
2016,05,02,11,24,18.70
2016,05,02,11,25,18.60
2016,05,02,11,26,18.60
2016,05,02,11,27,18.60
2016,05,02,11,28,18.60
2016,05,02,11,29,18.70
2016,05,02,11,30,18.70
2016,05,02,11,31,18.70
2016,05,02,11,32,18.80
2016,05,02,11,33,18.80
2016,05,02,11,34,18.80
2016,05,02,11,35,18.80
2016,05,02,11,36,18.90
2016,05,02,11,37,18.90
2016,05,02,11,38,18.90
2016,05,02,11,39,19.00
2016,05,02,11,40,19.00
2016,05,02,11,41,19.00
2016,05,02,11,42,19.10
2016,05,02,11,43,19.10
2016,05,02,11,44,19.10
2016,05,02,11,45,19.10
2016,05,02,11,46,19.10
2016,05,02,11,47,19.10
2016,05,02,11,48,19.10
2016,05,02,11,49,19.10
2016,05,02,11,50,19.10
2016,05,02,11,51,19.10
2016,05,02,11,52,19.10
2016,05,02,11,53,19.10
2016,05,02,11,54,19.10
2016,05,02,11,55,19.10
2016,05,02,11,56,19.10
2016,05,02,11,57,19.10
2016,05,02,11,58,19.10
2016,05,02,11,59,19.10
2016,05,02,12,00,19.10
2016,05,02,12,01,19.20
2016,05,02,12,02,19.20
2016,05,02,12,03,19.20
2016,05,02,12,04,19.20
2016,05,02,12,05,19.20
2016,05,02,12,06,19.20
2016,05,02,12,07,19.20
2016,05,02,12,08,19.20
2016,05,02,12,09,19.20
2016,05,02,12,10,19.30
2016,05,02,12,11,19.30
2016,05,02,12,12,19.30
2016,05,02,12,13,19.30
2016,05,02,12,14,19.30
2016,05,02,12,15,19.30
2016,05,02,12,16,19.30
2016,05,02,12,17,19.50
2016,05,02,12,18,19.50
2016,05,02,12,19,19.50
2016,05,02,12,20,19.60
2016,05,02,12,21,19.60
2016,05,02,12,22,19.60
2016,05,02,12,23,19.70
2016,05,02,12,24,19.70
2016,05,02,12,25,19.80
2016,05,02,12,26,19.80
2016,05,02,12,27,19.80
2016,05,02,12,28,19.90
2016,05,02,12,29,19.90
2016,05,02,12,30,20.00
2016,05,02,12,31,20.00
2016,05,02,12,32,20.10
2016,05,02,12,33,20.20
2016,05,02,12,34,20.20
2016,05,02,12,35,20.20
2016,05,02,12,36,20.30
2016,05,02,12,37,20.40
2016,05,02,12,38,20.40
2016,05,02,12,39,20.40
2016,05,02,12,40,20.50
2016,05,02,12,41,20.50
2016,05,02,12,42,20.60
2016,05,02,12,43,20.60
2016,05,02,12,44,20.60
2016,05,02,12,45,20.70
2016,05,02,12,46,20.70
2016,05,02,12,47,20.70
2016,05,02,12,48,20.70
2016,05,02,12,49,20.70
2016,05,02,12,50,20.70
2016,05,02,12,51,20.70
2016,05,02,12,52,20.70
2016,05,02,12,53,20.70
2016,05,02,12,54,20.70
2016,05,02,12,55,20.70
2016,05,02,12,56,20.70
2016,05,02,12,57,20.70
2016,05,02,12,58,20.70
2016,05,02,12,59,20.70
2016,05,02,13,00,20.80
2016,05,02,13,01,20.80
2016,05,02,13,02,20.80
2016,05,02,13,03,20.90
2016,05,02,13,04,21.00
2016,05,02,13,05,21.00
2016,05,02,13,06,21.00
2016,05,02,13,07,21.00
2016,05,02,13,08,21.00
2016,05,02,13,09,21.00
2016,05,02,13,10,21.00
2016,05,02,13,11,21.10
2016,05,02,13,12,21.10
2016,05,02,13,13,21.20
2016,05,02,13,14,21.30
2016,05,02,13,15,21.30
2016,05,02,13,16,21.40
2016,05,02,13,17,21.40
2016,05,02,13,18,21.50
2016,05,02,13,19,21.60
2016,05,02,13,20,21.60
2016,05,02,13,21,21.60
2016,05,02,13,22,21.60
2016,05,02,13,23,21.60
2016,05,02,13,24,21.60
2016,05,02,13,25,21.60
2016,05,02,13,26,21.60
2016,05,02,13,27,21.60
2016,05,02,13,28,21.60
2016,05,02,13,29,21.60
2016,05,02,13,30,21.60
2016,05,02,13,31,21.60
2016,05,02,13,32,21.50
2016,05,02,13,33,21.50
2016,05,02,13,34,21.40
2016,05,02,13,35,21.40
2016,05,02,13,36,21.40
2016,05,02,13,37,21.40
2016,05,02,13,38,21.40
2016,05,02,13,39,21.40
2016,05,02,13,40,21.40
2016,05,02,13,41,21.40
2016,05,02,13,42,21.40
2016,05,02,13,43,21.40
2016,05,02,13,44,21.40
2016,05,02,13,45,21.40
2016,05,02,13,46,21.40
2016,05,02,13,47,21.40
2016,05,02,13,48,21.40
2016,05,02,13,49,21.40
2016,05,02,13,50,21.50
2016,05,02,13,51,21.50
2016,05,02,13,52,21.50
2016,05,02,13,53,21.60
2016,05,02,13,54,21.60
2016,05,02,13,55,21.70
2016,05,02,13,56,21.70
2016,05,02,13,57,21.80
2016,05,02,13,58,21.80
2016,05,02,13,59,21.80
2016,05,02,14,00,21.80
2016,05,02,14,01,21.80
2016,05,02,14,02,21.80
2016,05,02,14,03,21.80
2016,05,02,14,04,21.80
2016,05,02,14,05,21.80
2016,05,02,14,06,21.80
2016,05,02,14,07,21.90
2016,05,02,14,08,21.90
2016,05,02,14,09,21.90
2016,05,02,14,10,21.90
2016,05,02,14,11,22.00
2016,05,02,14,12,22.00
2016,05,02,14,13,22.00
2016,05,02,14,14,22.00
2016,05,02,14,15,22.10
2016,05,02,14,16,22.10
2016,05,02,14,17,22.10
2016,05,02,14,18,22.00
2016,05,02,14,19,22.00
2016,05,02,14,20,21.90
2016,05,02,14,21,21.90
2016,05,02,14,22,21.90
2016,05,02,14,23,21.80
2016,05,02,14,24,21.80
2016,05,02,14,25,21.80
2016,05,02,14,26,21.80
2016,05,02,14,27,21.80
2016,05,02,14,28,21.80
2016,05,02,14,29,21.80
2016,05,02,14,30,21.80
2016,05,02,14,31,21.70
2016,05,02,14,32,21.70
2016,05,02,14,33,21.70
2016,05,02,14,34,21.70
2016,05,02,14,35,21.70
2016,05,02,14,36,21.70
2016,05,02,14,37,21.70
2016,05,02,14,38,21.70
2016,05,02,14,39,21.70
2016,05,02,14,40,21.70
2016,05,02,14,41,21.70
2016,05,02,14,42,21.80
2016,05,02,14,43,21.80
2016,05,02,14,44,21.90
2016,05,02,14,45,21.90
2016,05,02,14,46,22.00
2016,05,02,14,47,22.00
2016,05,02,14,48,22.00
2016,05,02,14,49,22.10
2016,05,02,14,50,22.10
2016,05,02,14,51,22.10
2016,05,02,14,52,22.10
2016,05,02,14,53,22.10
2016,05,02,14,54,22.10
2016,05,02,14,55,22.10
2016,05,02,14,56,22.10
2016,05,02,14,57,22.10
2016,05,02,14,58,22.10
2016,05,02,14,59,22.10
2016,05,02,15,00,22.10
2016,05,02,15,01,22.10
2016,05,02,15,02,22.10
2016,05,02,15,03,22.10
2016,05,02,15,04,22.10
2016,05,02,15,05,22.10
2016,05,02,15,06,22.20
2016,05,02,15,07,22.20
2016,05,02,15,08,22.30
2016,05,02,15,09,22.30
2016,05,02,15,10,22.40
2016,05,02,15,11,22.40
2016,05,02,15,12,22.40
2016,05,02,15,13,22.50
2016,05,02,15,14,22.60
2016,05,02,15,15,22.60
2016,05,02,15,16,22.60
2016,05,02,15,17,22.70
2016,05,02,15,18,22.70
2016,05,02,15,19,22.70
2016,05,02,15,20,22.80
2016,05,02,15,21,22.80
2016,05,02,15,22,22.90
2016,05,02,15,23,22.90
2016,05,02,15,24,22.90
2016,05,02,15,25,23.00
2016,05,02,15,26,23.00
2016,05,02,15,27,23.10
2016,05,02,15,28,23.10
2016,05,02,15,29,23.10
2016,05,02,15,30,23.10
2016,05,02,15,31,23.20
2016,05,02,15,32,23.20
2016,05,02,15,33,23.30
2016,05,02,15,34,23.30
2016,05,02,15,35,23.30
2016,05,02,15,36,23.30
2016,05,02,15,37,23.30
2016,05,02,15,38,23.30
2016,05,02,15,39,23.30
2016,05,02,15,40,23.30
2016,05,02,15,41,23.30
2016,05,02,15,42,23.40
2016,05,02,15,43,23.40
2016,05,02,15,44,23.40
2016,05,02,15,45,23.50
2016,05,02,15,46,23.50
2016,05,02,15,47,23.50
2016,05,02,15,48,23.60
2016,05,02,15,49,23.60
2016,05,02,15,50,23.70
2016,05,02,15,51,23.70
2016,05,02,15,52,23.80
2016,05,02,15,53,23.80
2016,05,02,15,54,23.90
2016,05,02,15,55,23.90
2016,05,02,15,56,23.90
2016,05,02,15,57,24.00
2016,05,02,15,58,24.00
2016,05,02,15,59,24.00
2016,05,02,16,00,24.00
2016,05,02,16,01,24.00
2016,05,02,16,02,24.10
2016,05,02,16,03,24.00
2016,05,02,16,04,24.00
2016,05,02,16,05,24.00
2016,05,02,16,06,23.90
2016,05,02,16,07,23.90
2016,05,02,16,08,23.80
2016,05,02,16,09,23.80
2016,05,02,16,10,23.80
2016,05,02,16,11,23.70
2016,05,02,16,12,23.70
2016,05,02,16,13,23.60
2016,05,02,16,14,23.60
2016,05,02,16,15,23.50
2016,05,02,16,16,23.40
2016,05,02,16,17,23.40
2016,05,02,16,18,23.40
2016,05,02,16,19,23.30
2016,05,02,16,20,23.30
2016,05,02,16,21,23.30
2016,05,02,16,22,23.30
2016,05,02,16,23,23.30
2016,05,02,16,24,23.30
2016,05,02,16,25,23.30
2016,05,02,16,26,23.30
2016,05,02,16,27,23.30
2016,05,02,16,28,23.30
2016,05,02,16,29,23.30
2016,05,02,16,30,23.20
2016,05,02,16,31,23.20
2016,05,02,16,32,23.20
2016,05,02,16,33,23.00
2016,05,02,16,34,22.80
2016,05,02,16,35,22.70
2016,05,02,16,36,22.60
2016,05,02,16,37,22.50
2016,05,02,16,38,22.50
2016,05,02,16,39,22.50
2016,05,02,16,40,22.50
2016,05,02,16,41,22.50
2016,05,02,16,42,22.50
2016,05,02,16,43,22.50
2016,05,02,16,44,22.50
2016,05,02,16,45,22.60
2016,05,02,16,46,22.60
2016,05,02,16,47,22.60
2016,05,02,16,48,22.60
2016,05,02,16,49,22.60
2016,05,02,16,50,22.40
2016,05,02,16,51,21.80
2016,05,02,16,52,21.10
2016,05,02,16,53,20.40
2016,05,02,16,54,19.80
2016,05,02,16,55,19.40
2016,05,02,16,56,19.20
2016,05,02,16,57,19.00
2016,05,02,16,58,19.00
2016,05,02,16,59,18.90
2016,05,02,17,00,19.00
2016,05,02,17,01,19.10
2016,05,02,17,02,19.30
2016,05,02,17,03,19.50
2016,05,02,17,04,19.70
2016,05,02,17,05,19.90
2016,05,02,17,06,20.10
2016,05,02,17,07,20.40
2016,05,02,17,08,20.50
2016,05,02,17,09,20.70
2016,05,02,17,10,21.00
2016,05,02,17,11,21.20
2016,05,02,17,12,21.50
2016,05,02,17,13,21.70
2016,05,02,17,14,21.90
2016,05,02,17,15,22.20
2016,05,02,17,16,22.40
2016,05,02,17,17,22.60
2016,05,02,17,18,22.80
2016,05,02,17,19,22.80